Weather History for Homer, AK

Change the Weather History Date:

Sunday, October 7, 2012

  Actual Average Record
Temperature  
Mean Temperature 52 °F -  
Max Temperature 57 °F 47 °F 57 °F (1932)
Min Temperature 46 °F 36 °F 18 °F (1958)
Degree Days  
Heating Degree Days 14    
Growing Degree Days 2 (Base 50)    
Moisture  
Dew Point 46 °F    
Average Humidity 80    
Maximum Humidity 90    
Minimum Humidity 69    
Precipitation  
Precipitation 0.11 in - - ()
Sea Level Pressure  
Sea Level Pressure 30.26 in    
Wind  
Wind Speed 3 mph (NE)    
Max Wind Speed 7 mph    
Max Gust Speed -    
Visibility 10 miles    
Events Rain    
Averages and records for this station are not official NWS values.
T = Trace of Precipitation, MM = Missing Value Source: NWS Daily Summary

Daily Weather History Graph

Daily Weather History Graph

Search for Another Location

Airport:

Trip Planner

Search our weather history database for the weather conditions in past years. The results will help you decide how hot, cold, wet, or windy it might be!

Date:

Astronomy

Oct. 07, 2012 Rise Set
Actual Time 8:27 AM AKDT 7:18 PM AKDT
Civil Twilight 7:45 AM AKDT 7:59 PM AKDT
Nautical Twilight 6:58 AM AKDT 8:47 PM AKDT
Astronomical Twilight 6:08 AM AKDT 9:36 PM AKDT
Moon 11:41 PM AKDT (10/7) 4:13 PM AKDT (10/7)
Length of Visible Light 12h 14m
Length of Day
10h 51m
Waning Gibbous, 55% of the Moon is Illuminated
Oct 7
Waning Gibbous
Oct 7
Last Quarter
Oct 15
New
Oct 21
First Quarter
Oct 29
Full

Hourly Weather History & Observations

Time (AKDT) Temp. Dew Point Humidity Pressure Visibility Wind Dir Wind Speed Gust Speed Precip Events Conditions
12:53 AM 46.9 °F 44.1 °F 90% 30.28 in 10.0 mi NE 4.6 mph - 0.02 in   Overcast
1:53 AM 46.9 °F 44.1 °F 90% 30.27 in 7.0 mi ENE 6.9 mph - 0.02 in Rain Light Rain
2:53 AM 46.9 °F 43.0 °F 86% 30.26 in 10.0 mi NE 6.9 mph - 0.02 in   Overcast
3:53 AM 46.9 °F 43.0 °F 86% 30.26 in 10.0 mi NE 5.8 mph - 0.00 in   Overcast
4:53 AM 46.9 °F 43.0 °F 86% 30.25 in 10.0 mi Calm Calm - 0.01 in Rain Light Rain
5:53 AM 46.9 °F 44.1 °F 90% 30.24 in 10.0 mi Variable 3.5 mph - 0.01 in   Overcast
6:53 AM 48.0 °F 44.1 °F 86% 30.24 in 10.0 mi Calm Calm - 0.01 in   Overcast
7:53 AM 48.9 °F 45.0 °F 86% 30.24 in 10.0 mi Calm Calm - N/A   Overcast
8:53 AM 50.0 °F 46.0 °F 86% 30.25 in 10.0 mi Calm Calm - 0.01 in Rain Light Rain
9:53 AM 51.1 °F 46.9 °F 86% 30.25 in 10.0 mi Calm Calm - 0.01 in   Overcast
10:53 AM 53.1 °F 48.0 °F 83% 30.27 in 10.0 mi Calm Calm - 0.00 in   Overcast
11:53 AM 55.0 °F 48.0 °F 77% 30.27 in 10.0 mi Calm Calm - N/A   Overcast
12:53 PM 55.9 °F 48.9 °F 77% 30.28 in 10.0 mi Calm Calm - N/A   Overcast
1:53 PM 57.0 °F 48.0 °F 72% 30.28 in 10.0 mi Calm Calm - N/A   Overcast
2:53 PM 55.9 °F 46.9 °F 72% 30.28 in 10.0 mi Variable 5.8 mph - N/A   Overcast
3:53 PM 57.0 °F 46.9 °F 69% 30.26 in 10.0 mi Variable 5.8 mph - N/A   Overcast
4:53 PM 55.9 °F 46.9 °F 72% 30.26 in 10.0 mi Variable 5.8 mph - N/A   Overcast
5:53 PM 55.9 °F 46.0 °F 69% 30.25 in 10.0 mi Variable 5.8 mph - N/A   Overcast
6:53 PM 55.9 °F 46.9 °F 72% 30.25 in 10.0 mi Calm Calm - N/A   Overcast
7:53 PM 55.0 °F 46.0 °F 72% 30.26 in 10.0 mi Calm Calm - N/A   Overcast
8:53 PM 55.0 °F 46.0 °F 72% 30.25 in 10.0 mi Calm Calm - N/A   Mostly Cloudy
9:53 PM 50.0 °F 45.0 °F 83% 30.26 in 10.0 mi North - - N/A   Clear
10:53 PM 46.9 °F 43.0 °F 86% 30.26 in 10.0 mi Calm Calm - N/A   Clear
11:53 PM 52.0 °F 45.0 °F 77% 30.26 in 10.0 mi West 4.6 mph - N/A   Partly Cloudy